Weather in Bayny

Russia / Sverdlovsk Oblast     56°41′46″N   62°08′27″E
temp.,
°C
wind,
m/s
gust,
m/s
humid.,
%
clouds,
%
prec.,
mm/h
press.,
hPa
HPBL,
m
16 may, sun
sun1623:00+23wnw81551100 0.3 1019641
02:00+18w365234 0.0 101884
05:00+18wsw4764100 0.0 1019114
08:00+23w5125494 0.0 1018413
11:00+29w7103366 0.0 10181271
14:00+32w7102097 0.0 10183181
17:00+32w68215 0.0 10174091
20:00+26w473525 0.0 101799
17 may, mon
mon1723:00+21wsw411434 0.0 1017153
02:00+19w411475 0.0 1017177
05:00+18wsw411565 0.0 1018173
08:00+24wsw510441 0.0 1018339
11:00+29wsw812280 0.0 10173310
14:00+30w912215 0.0 10153699
17:00+30w7112442 0.0 10143617
20:00+24wnw49425 0.1 1014157
18 may, tue
tue1823:00+21w4850100 0.2 1014114
02:00+18wsw336996 0.4 101442
05:00+17w47730 0.6 1014109
08:00+21nw610560 0.0 1014632
11:00+23nw810410 0.0 10142109
14:00+20n89539 0.0 10161311
17:00+18n8954100 0.0 10181282
20:00+13nne71067100 0.0 10211168
19 may, wed
wed1923:00+11nne6106756 0.0 1024872
02:00+12ne465813 0.0 10241088
05:00+7nne39810 0.0 1026214
08:00+12ene465811 0.0 1027731
11:00+16ene3443100 0.0 10261316
14:00+19ene2236100 0.0 10251515
17:00+20ese123374 0.0 10241675
20:00+17s22450 0.0 102425
20 may, thu
thu2023:00+13ssw22535 0.0 102515
02:00+11wsw33595 0.0 102527
05:00+10sw34635 0.0 102551
08:00+16sw574912 0.0 1024377
11:00+21sw45335 0.0 10231120
14:00+25wsw45250 0.0 10211627
17:00+26wsw45240 0.0 10191982
20:00+22wsw33400 0.0 101832